Simultaneous Nadir Overpasses (SNOs) Predictions

Prediction of SNOs between METOP-C and LANDSAT-8 Satellite Orbit:

Table of predicted SNOs for the next 14.0 days since TLE Epoch: 7/15/2024
Index Date (METOP-C) Time (METOP-C) Lat,Lon (METOP-C) SZA (METOP-C ) Date (LANDSAT-8) Time (LANDSAT-8) Lat,Lon (LANDSAT-8) SZA (LANDSAT-8 ) Distance(km) Time Diff (sec)
1 07/17/2024 21:12:52 -81.11, 81.64 117.89 07/17/2024 21:12:56 -81.11, 81.51 117.91 2.25 4
2 07/17/2024 22:03:31 81.12,-110.70 62.16 07/17/2024 22:02:22 81.12,-110.72 62.12 0.47 69
3 07/20/2024 15:56:37 81.03, -21.32 62.36 07/20/2024 15:57:51 80.99, -21.38 62.35 4.37 74
4 07/20/2024 16:47:13 -81.11, 148.16 117.37 07/20/2024 16:47:13 -81.11, 148.00 117.38 2.73 0
5 07/20/2024 17:37:52 81.12, -44.20 62.68 07/20/2024 17:36:39 81.12, -44.25 62.64 0.98 73
6 07/23/2024 11:30:56 81.07, 46.19 63.06 07/23/2024 11:32:05 81.07, 46.24 63.09 1.01 69
7 07/23/2024 12:21:36 -81.10,-145.82 116.86 07/23/2024 12:21:31 -81.10,-145.79 116.86 0.39 5
8 07/26/2024 07:05:17 81.08, 112.84 63.69 07/26/2024 07:06:21 81.09, 112.88 63.73 0.90 64
9 07/26/2024 07:55:57 -81.11, -79.15 116.22 07/26/2024 07:55:47 -81.11, -79.14 116.22 0.51 10
10 07/29/2024 02:39:37 81.09, 179.39 64.36 07/29/2024 02:40:36 81.08, 179.23 64.36 2.80 59



Historial Predications of SNOs between METOP-C and LANDSAT-8
